Regional Weather Roundup
Issued by NWS

Home | Current Version | Previous Version | Graphics & Text | Print | Product List | Glossary On
Versions: 1 2 3 4 5 6 7 8 9 10 11 12 13 14 15 16 17 18 19 20 21 22 23 24 25 26 27 28 29 30 31 32 33 34 35 36 37 38 39 40 41 42 43 44 45 46 47 48 49 50
000
ASUS43 KMKX 082111
RWRWI

WISCONSIN REGIONAL WEATHER ROUNDUP
NATIONAL WEATHER SERVICE MILWAUKEE/SULLIVAN WI
300 PM CST THU DEC 08 2016

NOTE: "FAIR" INDICATES FEW OR NO CLOUDS BELOW 12,000 FEET WITH NO
SIGNIFICANT WEATHER AND/OR OBSTRUCTIONS TO VISIBILITY.

WIZ001-002-006>008-014>016-023>028-082200-
NORTHWEST WISCONSIN

CITY           SKY/WX    TMP DP  RH WIND       PRES   REMARKS
SUPERIOR ARPT  CLOUDY    26  15  63 NW10G18   30.35R WCI  16
ASHLAND        SNOW      25  21  85 W12       30.30R VSB 1/2 WCI  14
HAYWARD        CLOUDY    24  14  65 NW8G17    30.29R WCI  15
SIREN          CLOUDY    24  15  66 NW14      30.35R WCI  12
CUMBERLAND     CLOUDY    23  14  68 NW15G21   30.31R WCI  10
RICE LAKE      CLOUDY    25  15  67 W9        30.33R WCI  15
CHETEK         CLOUDY    24  16  70 NW5       30.33R WCI  18
LADYSMITH      FLURRIES  25  18  74 W14       30.29R WCI  13
EAU CLAIRE     FLURRIES  25  15  66 NW13      30.33R WCI  14
MENOMONIE      CLOUDY    26  16  64 W10G16    30.35R WCI  16
NEW RICHMOND   FLURRIES  24  15  68 NW17G23   30.36R WCI  10
OSCEOLA        FLURRIES  24  16  69 W14G20    30.41R WCI  12
$$

WIZ003>005-009-010-017-018-082200-
NORTH CENTRAL WISCONSIN

CITY           SKY/WX    TMP DP  RH WIND       PRES   REMARKS
MANITOWISH WTR PTCLDY    24  18  79 N14G20    30.17R WCI  12
ARBOR VITAE    MOCLDY    26  19  77 N9        30.17R WCI  16
WOODRUFF       MOCLDY    26  19  77 N9        30.17R WCI  16
RHINELANDER    LGT SNOW  26  21  81 NW10      30.16R WCI  16
EAGLE RIVER    LGT SNOW  24  17  75 NW10G21   30.15R WCI  13
LAND O LAKES   MOCLDY    25  20  81 NW7       30.16R WCI  17
PHILLIPS       FLURRIES  24  18  80 W9        30.21R WCI  14
TOMAHAWK       CLOUDY    25  17  69 W9G20     30.19R WCI  16
MEDFORD        CLOUDY    23  15  71 W15       30.22R WCI  10
MERRILL        CLOUDY    26  16  65 NW8G16    30.21R WCI  18
$$

WIZ029-030-035-036-043>047-082200-
CENTRAL WISCONSIN

CITY           SKY/WX    TMP DP  RH WIND       PRES   REMARKS
WAUSAU         CLOUDY    24  16  71 W15       30.21R WCI  11
MOSINEE        NOT AVBL
MARSHFIELD     CLOUDY    23  14  68 NW17      30.25R WCI   9
STEVENS POINT  CLOUDY    24  15  69 W10G21    30.24R WCI  13
WAUPACA        CLOUDY    31  17  57 W12G20    30.24R WCI  21
WAUTOMA        FLURRIES  26  18  71 NW17      30.26R WCI  13
WISC RAPIDS    CLOUDY    25  16  68 NW16G22   30.28R WCI  12
CAMP DOUGLAS   FLURRIES  23  16  74 W15       30.30R WCI  10
$$

WIZ011>013-019>022-031-037>040-048>050-082200-
NORTHEAST WISCONSIN

CITY           SKY/WX    TMP DP  RH WIND       PRES   REMARKS
ANTIGO         FLURRIES  25  18  76 W13       30.16R WCI  13
SHAWANO        CLOUDY    31  18  59 NW12G21   30.19R WCI  22
OCONTO         CLOUDY    31  20  64 W9        30.16R WCI  23
STURGEON BAY   FLURRIES  31  21  66 NW15      30.14R WCI  20
GREEN BAY      CLOUDY    32  20  61 NW14      30.18R WCI  22
MANITOWOC      CLEAR     30  19  63 W21       30.18R WCI  17
APPLETON       MOCLDY    28  16  59 W18       30.16S WCI  16
CLINTONVILLE   MOCLDY    30  16  55 NW18G24   30.20R WCI  18
OSHKOSH        MOCLDY    26  17  68 W12G20    30.21R WCI  16
$$

WIZ032>034-041-042-053>061-082200-
SOUTHWEST WISCONSIN

CITY           SKY/WX    TMP DP  RH WIND       PRES   REMARKS
LA CROSSE      CLOUDY    27  16  63 NW13      30.36R WCI  16
SPARTA         CLOUDY    24  17  72 W8        30.33R WCI  16
VIROQUA        CLOUDY    22  17  79 NW14      30.31R WCI   9
BOSCOBEL       CLOUDY    25  15  66 W10G18    30.38R WCI  15
PRAIRIE DU CHI FLURRIES  24  15  66 W12       30.39R WCI  13
PLATTEVILLE    CLOUDY    23  18  81 W14       30.35R WCI  10
$$

WIZ056-057-062-063-064-067-068-082200-
SOUTH CENTRAL WISCONSIN

CITY           SKY/WX    TMP DP  RH WIND       PRES   REMARKS
REEDSBURG      FLURRIES  23  16  75 W17G24    30.31R WCI   9
BARABOO/DELLS  FLURRIES  23  16  74 W10G16    30.29R WCI  12
LONE ROCK      CLOUDY    24  15  68 W15       30.35R WCI  11
MINERAL POINT  FLURRIES  25  19  80 W15G21    30.31R WCI  12
MADISON        FLURRIES  22  15  75 NW10      30.31R WCI  11
MIDDLETON      CLOUDY    24  18  75 W12G21    30.31R WCI  13
WATERTOWN      CLOUDY    24  17  75 NW15G21   30.28R WCI  11
MONROE         CLOUDY    23  18  80 W14G24    30.31R WCI  11
JANESVILLE     CLOUDY    25  16  68 NW15G23   30.31R WCI  12
$$

WIZ051-052-058>065-066-070>072-082200-
SOUTHEAST WISCONSIN

CITY           SKY/WX    TMP DP  RH WIND       PRES   REMARKS
MILWAUKEE      PTSUNNY   26  14  60 W22G30    30.26R WCI  12
WAUKESHA       CLOUDY    21  14  73 W18G28    30.27R WCI   6
MILWAUKEE/TIMM CLOUDY    25  14  63 W21       30.26R WCI  10
RACINE         MOSUNNY   25  14  63 W14G29    30.27R WCI  13
BURLINGTON     CLOUDY    28  22  75 NW18G24   30.29R WCI  16
KENOSHA        CLOUDY    24  15  68 W18G29    30.27R WCI  10
FOND DU LAC    MIX PCPN  26  16  65 W15       30.23R WCI  14
SHEBOYGAN      CLOUDY    27  17  66 W16G24    30.21R WCI  15
WEST BEND      NOT AVBL
JUNEAU         CLOUDY    23  16  75 W10       30.27R WCI  12
$$

LSZ147-162-082200-
LAKE SUPERIOR

STATION/POSITION TIME  TEMP    WIND        PRES    WAVE
                       AIR SEA DIR/SP/G            HT/PER
                 (UTC) (F)     (DEG/KT/KT) (MB)    (FT/S)
DEVILS ISLAND    2100   27     310/ 20/ 23 1026.5R
PORT WING        2040   27     310/ 13/ 18 1026.4R
SAXON HARBOR     2040   29     300/ 16/ 21 1024.7R
$$

LMZ867-665-643>646-082200-
LAKE MICHIGAN

STATION/POSITION TIME  TEMP    WIND        PRES    WAVE
                       AIR SEA DIR/SP/G            HT/PER
                 (UTC) (F)     (DEG/KT/KT) (MB)    (FT/S)
CHAMBERS ISLAND  2040   34     300/ 11/ 18 1019.6R
NORTHPORT PIER   2040   33     320/ 20/ 26 1019.3R
SISTER BAY       1906   34     330/ 24/ 28   N/A
ALGOMA LAKESHORE 1836          300/ 12/ 23   N/A
KEWAUNEE LAKESHO 2048   31     290/ 12/ 18 1020.3R
SHEBOYGAN LAKESH 2100   27     270/ 20/ 25 1023.2R
PORT WASHINGTON  2040   27     280/ 10/ 20 1024.7R
MILWAUKEE LAKESH 2050   26     280/ 16/ 20   N/A
KENOSHA   LAKESH 2100   25     280/ 16/ 27 1024.7
$$

TC  - TEMPERATURE IN CELSIUS
VSB - VISIBILITY IN STATUTE MILES
WCI - WIND CHILL INDEX
HX  - HEAT INDEX





USA.gov is the U.S. government's official web portal to all federal, state and local government web resources and services.